CW1035 Weather Reports


Display with metric or nautical units.
time (UTC)temp
F
wind
direction
speed
MPH
gust
MPH
rain 1hr
in
rain 24hr
in
rain mn
in
humidity
%
barometer
mb
20260901095752 54 201 0.0 0.0 0.00 0.00 0.00 92 1009.9
20260901095252 54 201 0.0 4.0 0.00 0.00 0.00 92 1009.9
20260901094751 54 200 0.0 4.0 0.00 0.00 0.00 92 1009.9
20260901094252 54 196 1.0 3.0 0.00 0.00 0.00 92 1009.9
20260901093751 53 215 0.0 3.0 0.00 0.00 0.00 92 1009.9
20260901093251 54 215 0.0 3.0 0.00 0.00 0.00 91 1009.8
20260901092751 54 221 0.0 3.0 0.00 0.00 0.00 91 1009.8
20260901092251 54 236 0.0 1.0 0.00 0.00 0.00 91 1009.9
20260901091751 54 260 0.0 0.0 0.00 0.00 0.00 91 1009.8
20260901091251 54 260 0.0 0.0 0.00 0.00 0.00 90 1009.9
20260901090751 54 260 0.0 0.0 0.00 0.00 0.00 90 1009.8
20260901090250 54 260 0.0 0.0 0.00 0.00 0.00 89 1009.8
20260901085751 55 260 0.0 0.0 0.00 0.00 0.00 89 1009.8
20260901085250 55 260 0.0 0.0 0.00 0.00 0.00 88 1009.8
20260901084750 55 260 0.0 0.0 0.00 0.00 0.00 88 1009.7
20260901084250 55 260 0.0 0.0 0.00 0.00 0.00 87 1009.7
20260901083750 56 260 0.0 0.0 0.00 0.00 0.00 87 1009.6
20260901083249 56 260 0.0 1.0 0.00 0.00 0.00 86 1009.6
20260901082749 56 260 0.0 1.0 0.00 0.00 0.00 86 1009.6
20260901082249 56 260 0.0 1.0 0.00 0.00 0.00 86 1009.6
20260901081750 56 260 0.0 1.0 0.00 0.00 0.00 86 1009.6
20260901081249 57 260 0.0 1.0 0.00 0.00 0.00 85 1009.6
20260901080749 57 260 0.0 1.0 0.00 0.00 0.00 85 1009.5
20260901080249 57 260 0.0 2.0 0.00 0.00 0.00 84 1009.6
20260901075749 57 260 0.0 2.0 0.00 0.00 0.00 84 1009.6
20260901075249 57 260 2.0 3.0 0.00 0.00 0.00 84 1009.6
20260901074749 58 277 1.0 3.0 0.00 0.00 0.00 83 1009.6
20260901074248 58 270 1.0 3.0 0.00 0.00 0.00 83 1009.6
20260901073749 58 266 1.0 3.0 0.00 0.00 0.00 83 1009.6
20260901073248 58 262 2.0 4.0 0.00 0.00 0.00 83 1009.6
20260901072248 58 279 3.0 6.0 0.00 0.00 0.00 82 1009.5
20260901071748 58 289 4.0 6.0 0.00 0.00 0.00 82 1009.5
20260901071248 58 264 3.0 5.0 0.00 0.00 0.00 82 1009.5
20260901070748 58 278 3.0 5.0 0.00 0.00 0.00 82 1009.6
20260901065748 58 281 3.0 6.0 0.00 0.00 0.00 82 1009.6
20260901065247 58 266 4.0 5.0 0.00 0.00 0.00 82 1009.6
20260901064247 58 291 3.0 4.0 0.00 0.00 0.00 82 1009.6
20260901062247 58 283 4.0 9.0 0.00 0.00 0.00 83 1009.7
20260901061747 58 255 3.0 6.0 0.00 0.00 0.00 83 1009.7
20260901061246 58 250 2.0 6.0 0.00 0.00 0.00 83 1009.8
20260901060747 58 276 3.0 6.0 0.00 0.00 0.00 83 1009.7
20260901055746 58 272 3.0 6.0 0.00 0.00 0.00 83 1009.9
20260901055246 58 256 2.0 6.0 0.00 0.00 0.00 82 1009.8
20260901054746 58 259 5.0 6.0 0.00 0.00 0.00 83 1009.8
20260901054246 58 257 3.0 7.0 0.00 0.00 0.00 83 1009.9
20260901053746 58 275 3.0 7.0 0.00 0.00 0.00 82 1009.9
20260901053246 58 276 4.0 7.0 0.00 0.00 0.00 82 1010.0
20260901052745 58 259 4.0 7.0 0.00 0.00 0.00 82 1010.0
20260901052245 59 239 2.0 7.0 0.00 0.00 0.00 81 1009.9
20260901050745 59 245 1.0 6.0 0.00 0.00 0.00 81 1009.7
20260901050245 59 302 1.0 6.0 0.00 0.00 0.00 81 1009.8
20260901045745 59 261 3.0 7.0 0.00 0.00 0.00 81 1009.9
20260901045245 59 280 3.0 7.0 0.00 0.00 0.00 81 1009.9
20260901044745 59 287 5.0 7.0 0.00 0.00 0.00 80 1009.9
20260901044245 59 283 4.0 7.0 0.00 0.00 0.00 80 1009.9
20260901043745 59 252 3.0 7.0 0.00 0.00 0.00 80 1009.8
20260901043245 59 257 2.0 6.0 0.00 0.00 0.00 80 1009.9
20260901042744 59 270 2.0 6.0 0.00 0.00 0.00 79 1009.8
20260901042244 60 269 4.0 6.0 0.00 0.00 0.00 79 1009.8
20260901041244 60 270 3.0 6.0 0.00 0.00 0.00 78 1009.8
20260901040744 60 265 4.0 6.0 0.00 0.00 0.00 78 1009.7
20260901035744 60 257 4.0 9.0 0.00 0.00 0.00 77 1009.7
20260901035243 61 235 4.0 8.0 0.00 0.00 0.00 76 1009.6
20260901034244 62 266 3.0 8.0 0.00 0.00 0.00 74 1009.6
20260901033744 62 302 2.0 8.0 0.00 0.00 0.00 73 1009.6
20260901033243 63 269 3.0 7.0 0.00 0.00 0.00 73 1009.5
20260901032743 63 264 2.0 11.0 0.00 0.00 0.00 72 1009.5
20260901032244 63 281 2.0 11.0 0.00 0.00 0.00 72 1009.5
20260901031743 63 262 3.0 9.0 0.00 0.00 0.00 72 1009.5
20260901030743 63 274 1.0 7.0 0.00 0.00 0.00 72 1009.5
20260901030243 64 266 1.0 7.0 0.00 0.00 0.00 71 1009.5
20260901025743 64 265 3.0 6.0 0.00 0.00 0.00 71 1009.5
20260901025242 64 283 1.0 6.0 0.00 0.00 0.00 71 1009.6
20260901024742 64 265 1.0 6.0 0.00 0.00 0.00 70 1009.6
20260901024242 65 266 2.0 8.0 0.00 0.00 0.00 70 1009.6
20260901023742 65 299 3.0 8.0 0.00 0.00 0.00 69 1009.5
20260901023242 65 278 2.0 6.0 0.00 0.00 0.00 68 1009.6
20260901022742 65 280 1.0 6.0 0.00 0.00 0.00 68 1009.7
20260901022242 65 279 3.0 6.0 0.00 0.00 0.00 68 1009.7
20260901021742 66 255 2.0 6.0 0.00 0.00 0.00 68 1009.8
20260901021241 66 281 3.0 8.0 0.00 0.00 0.00 69 1009.7
20260901020741 66 290 3.0 8.0 0.00 0.00 0.00 69 1009.8
20260901020241 66 300 1.0 7.0 0.00 0.00 0.00 69 1009.9
20260901015741 66 283 0.0 7.0 0.00 0.00 0.00 69 1009.9
20260901015241 66 266 3.0 7.0 0.00 0.00 0.00 69 1009.9
20260901014241 66 307 5.0 8.0 0.00 0.00 0.00 68 1009.9
20260901013741 66 238 1.0 5.0 0.00 0.00 0.00 69 1010.0
20260901013241 66 261 3.0 5.0 0.00 0.00 0.00 69 1009.9
20260901012241 66 290 2.0 9.0 0.00 0.00 0.00 69 1009.9
20260901011741 66 264 4.0 9.0 0.00 0.00 0.00 68 1009.9
20260901011240 66 269 4.0 7.0 0.00 0.00 0.00 68 1010.0
20260901010741 67 251 4.0 7.0 0.00 0.00 0.00 68 1010.0
20260901010240 67 292 3.0 8.0 0.00 0.00 0.00 67 1010.0
20260901005740 67 309 5.0 10.0 0.00 0.00 0.00 67 1010.1
20260901005240 67 311 5.0 10.0 0.00 0.00 0.00 67 1010.1
20260901004240 67 316 6.0 8.0 0.00 0.00 0.00 67 1010.2
20260901003740 67 289 2.0 8.0 0.00 0.00 0.00 68 1010.2
20260901003239 67 318 6.0 7.0 0.00 0.00 0.00 69 1010.3
20260901002740 67 254 2.0 8.0 0.00 0.00 0.00 69 1010.3
20260901002239 66 278 4.0 9.0 0.00 0.00 0.00 69 1010.4
20260901001239 66 280 3.0 9.0 0.00 0.00 0.00 70 1010.5
20260901000739 66 268 2.0 12.0 0.00 0.00 0.00 70 1010.5
20260901000241 66 289 6.0 12.0 0.00 0.00 0.00 70 1010.6
20260831235739 67 307 8.0 9.0 0.00 0.00 0.00 70 1010.5
20260831235239 66 274 2.0 9.0 0.00 0.00 0.00 70 1010.5
20260831234739 67 307 2.0 10.0 0.00 0.00 0.00 70 1010.7
20260831234239 67 289 2.0 10.0 0.00 0.00 0.00 69 1010.7
20260831233238 67 279 5.0 11.0 0.00 0.00 0.00 69 1010.8
20260831232738 67 288 3.0 11.0 0.00 0.00 0.00 70 1010.9
20260831232238 67 293 7.0 10.0 0.00 0.00 0.00 69 1011.0
20260831231738 67 277 4.0 11.0 0.00 0.00 0.00 69 1011.0
20260831231238 67 313 4.0 11.0 0.00 0.00 0.00 70 1011.1
20260831230237 66 275 7.0 11.0 0.00 0.00 0.00 71 1011.1
20260831225738 67 269 10.0 11.0 0.00 0.00 0.00 70 1011.2
20260831225237 67 269 6.0 9.0 0.00 0.00 0.00 71 1011.3
20260831224737 66 356 6.0 10.0 0.00 0.00 0.00 71 1011.5
20260831224237 67 324 2.0 10.0 0.00 0.00 0.00 71 1011.4
20260831223737 66 267 5.0 8.0 0.00 0.00 0.00 72 1011.4
20260831223237 66 248 2.0 10.0 0.00 0.00 0.00 73 1011.5
20260831222736 65 307 3.0 10.0 0.00 0.00 0.00 73 1011.6
20260831222236 65 268 8.0 9.0 0.00 0.00 0.00 73 1011.6
20260831221737 65 340 3.0 10.0 0.00 0.00 0.00 75 1011.7
20260831221236 65 285 8.0 10.0 0.00 0.00 0.00 75 1011.8
20260831220736 65 269 2.0 13.0 0.00 0.00 0.00 75 1011.9
20260831220236 65 270 8.0 13.0 0.00 0.00 0.00 74 1012.0
20260831215736 65 319 3.0 10.0 0.00 0.00 0.00 75 1012.1
20260831215236 65 287 4.0 11.0 0.00 0.00 0.00 74 1012.2
20260831214736 65 303 3.0 11.0 0.00 0.00 0.00 74 1012.2
20260831213736 65 311 11.0 11.0 0.00 0.00 0.00 75 1012.4
20260831213235 65 281 5.0 8.0 0.00 0.00 0.00 74 1012.4
20260831212735 65 271 3.0 8.0 0.00 0.00 0.00 76 1012.6
20260831212235 65 331 3.0 8.0 0.00 0.00 0.00 75 1012.6
20260831211735 65 340 5.0 9.0 0.00 0.00 0.00 75 1012.6
20260831211235 64 293 4.0 12.0 0.00 0.00 0.00 75 1012.7
20260831210734 64 331 4.0 12.0 0.00 0.00 0.00 75 1012.8
20260831210235 64 305 3.0 11.0 0.00 0.00 0.00 75 1012.7
20260831205735 64 299 3.0 11.0 0.00 0.00 0.00 74 1012.9
20260831204734 64 276 3.0 10.0 0.00 0.00 0.00 75 1012.9
20260831204234 64 318 3.0 10.0 0.00 0.00 0.00 75 1013.0
20260831203734 64 18 5.0 10.0 0.00 0.00 0.00 76 1013.0
20260831203234 63 288 1.0 8.0 0.00 0.00 0.00 76 1013.1
20260831202734 63 298 5.0 8.0 0.00 0.00 0.00 77 1013.2
20260831202234 63 274 6.0 8.0 0.00 0.00 0.00 76 1013.2
20260831201733 63 304 5.0 8.0 0.00 0.00 0.00 76 1013.3
20260831200734 63 254 1.0 8.0 0.00 0.00 0.00 77 1013.4
20260831200234 63 10 2.0 13.0 0.00 0.00 0.00 77 1013.5
20260831195733 63 331 5.0 13.0 0.00 0.00 0.00 77 1013.4
20260831194733 63 253 2.0 9.0 0.00 0.00 0.00 78 1013.4
20260831193733 63 23 6.0 9.0 0.00 0.00 0.00 78 1013.6
20260831192732 62 359 7.0 8.0 0.00 0.00 0.00 79 1013.7
20260831192233 61 360 5.0 8.0 0.00 0.00 0.00 80 1013.7
20260831191732 61 300 4.0 9.0 0.00 0.00 0.00 80 1013.8
20260831191303 61 271 4.0 9.0 0.00 0.00 0.00 80 1014.0
20260831190732 61 306 4.0 8.0 0.00 0.00 0.00 82 1014.0
20260831185732 60 288 5.0 11.0 0.00 0.00 0.00 83 1014.1
20260831185232 60 230 3.0 10.0 0.00 0.00 0.00 84 1014.1
20260831184731 60 288 3.0 9.0 0.00 0.00 0.00 84 1014.2
20260831184232 60 295 7.0 8.0 0.00 0.00 0.00 85 1014.2
20260831183732 60 274 4.0 8.0 0.00 0.00 0.00 85 1014.2
20260831182231 59 254 3.0 8.0 0.00 0.00 0.00 86 1014.4
20260831181731 59 269 3.0 9.0 0.00 0.00 0.00 86 1014.5
20260831181231 59 309 3.0 9.0 0.00 0.00 0.00 87 1014.5
20260831180731 59 328 4.0 10.0 0.00 0.00 0.00 86 1014.5
20260831180301 59 319 3.0 10.0 0.00 0.00 0.00 86 1014.5
20260831175730 59 260 2.0 9.0 0.00 0.00 0.00 87 1014.6
20260831175231 59 318 3.0 9.0 0.00 0.00 0.00 87 1014.6
20260831174730 59 326 5.0 9.0 0.00 0.00 0.00 86 1014.6
20260831174231 59 287 2.0 7.0 0.00 0.00 0.00 87 1014.7
20260831173800 59 292 3.0 8.0 0.00 0.00 0.00 87 1014.7
20260831173230 59 300 2.0 8.0 0.00 0.00 0.00 87 1014.8
20260831172730 58 10 4.0 9.0 0.00 0.00 0.00 87 1014.9
20260831172230 59 348 2.0 9.0 0.00 0.00 0.00 86 1014.9
20260831171729 59 328 3.0 8.0 0.00 0.00 0.00 86 1014.8
20260831171230 59 304 3.0 7.0 0.00 0.00 0.00 86 1014.9
20260831170759 59 317 5.0 7.0 0.00 0.00 0.00 85 1014.9
20260831170300 59 323 2.0 8.0 0.00 0.00 0.00 85 1014.9
20260831165759 60 265 0.0 8.0 0.00 0.00 0.00 85 1014.9
20260831165259 59 250 0.0 5.0 0.00 0.00 0.00 86 1014.9
20260831164759 59 301 0.0 5.0 0.00 0.00 0.00 87 1014.9
20260831164259 58 282 2.0 7.0 0.00 0.00 0.00 88 1014.9
20260831163759 58 276 3.0 7.0 0.00 0.00 0.00 88 1015.0
20260831163259 58 326 3.0 6.0 0.00 0.00 0.00 88 1015.0
20260831161258 57 289 5.0 6.0 0.00 0.00 0.00 90 1015.1
20260831160759 57 309 1.0 6.0 0.00 0.00 0.00 90 1015.2
20260831155758 57 249 1.0 7.0 0.00 0.00 0.00 91 1015.2
20260831155258 57 288 3.0 7.0 0.00 0.00 0.00 91 1015.2
20260831154758 56 300 2.0 7.0 0.00 0.00 0.00 92 1015.3
20260831154258 56 332 3.0 6.0 0.00 0.00 0.00 92 1015.3
20260831153257 56 288 2.0 6.0 0.00 0.00 0.00 94 1015.4
20260831152227 55 280 2.0 7.0 0.00 0.00 0.00 95 1015.3
20260831150257 55 283 3.0 6.0 0.00 0.00 0.00 96 1015.3
20260831145757 54 248 1.0 5.0 0.00 0.00 0.00 96 1015.3
20260831144757 54 292 1.0 7.0 0.00 0.00 0.00 97 1015.4
20260831144257 54 290 4.0 7.0 0.00 0.00 0.00 97 1015.4
20260831143756 54 278 6.0 6.0 0.00 0.00 0.00 97 1015.3
20260831143257 54 289 3.0 6.0 0.00 0.00 0.00 97 1015.3
20260831142256 54 285 5.0 7.0 0.00 0.00 0.00 97 1015.4
20260831141756 53 286 6.0 7.0 0.00 0.00 0.00 97 1015.3
20260831141256 53 269 4.0 7.0 0.00 0.00 0.00 98 1015.3
20260831140756 53 252 3.0 7.0 0.00 0.00 0.00 98 1015.3
20260831140256 53 275 5.0 7.0 0.00 0.00 0.00 98 1015.2
20260831135756 53 282 4.0 7.0 0.00 0.00 0.00 98 1015.1
20260831135255 53 292 5.0 8.0 0.00 0.00 0.00 98 1015.2
20260831134755 53 257 5.0 8.0 0.00 0.00 0.00 98 1015.2
20260831134256 53 274 4.0 8.0 0.00 0.00 0.00 98 1015.2
20260831133255 53 278 5.0 9.0 0.00 0.00 0.00 98 1015.1
20260831132755 53 258 8.0 8.0 0.00 0.00 0.00 98 1015.1
20260831132255 53 274 5.0 8.0 0.00 0.00 0.00 98 1015.2
20260831131754 53 261 4.0 8.0 0.00 0.00 0.00 98 1015.2
20260831131255 53 276 3.0 8.0 0.00 0.00 0.00 98 1015.2
20260831130754 53 278 4.0 10.0 0.00 0.00 0.00 98 1015.3
20260831125754 53 271 3.0 8.0 0.00 0.00 0.00 97 1015.4
20260831124754 53 285 5.0 10.0 0.00 0.00 0.00 97 1015.5
20260831124254 53 281 4.0 10.0 0.00 0.00 0.00 97 1015.5
20260831123753 53 257 4.0 8.0 0.00 0.00 0.00 97 1015.5
20260831123253 53 252 1.0 8.0 0.00 0.00 0.00 97 1015.6
20260831122753 53 258 4.0 8.0 0.00 0.00 0.00 97 1015.6
20260831122253 53 276 5.0 9.0 0.00 0.00 0.00 97 1015.6
20260831121753 53 252 5.0 9.0 0.00 0.00 0.00 97 1015.6
20260831121253 53 257 2.0 7.0 0.00 0.00 0.00 97 1015.7
20260831120753 53 265 3.0 6.0 0.00 0.00 0.00 97 1015.7
20260831120253 53 273 1.0 7.0 0.00 0.00 0.00 97 1015.9
20260831115752 53 281 3.0 7.0 0.00 0.00 0.00 97 1015.9
20260831115253 53 246 3.0 7.0 0.00 0.00 0.00 97 1016.0
20260831114752 53 272 7.0 7.0 0.00 0.00 0.00 97 1015.9
20260831114252 53 273 6.0 7.0 0.00 0.00 0.00 97 1016.0
20260831113752 53 265 2.0 7.0 0.00 0.00 0.00 97 1016.1
20260831113252 53 285 5.0 7.0 0.00 0.00 0.00 97 1016.1
20260831112252 53 266 4.0 9.0 0.00 0.00 0.00 97 1016.2
20260831111752 53 276 5.0 9.0 0.00 0.00 0.00 97 1016.1
20260831111251 53 268 3.0 9.0 0.00 0.00 0.00 97 1016.1
20260831110751 53 269 7.0 10.0 0.00 0.00 0.00 96 1016.2
20260831110252 54 267 2.0 10.0 0.00 0.00 0.00 96 1016.2
20260831105751 54 280 4.0 9.0 0.00 0.00 0.00 96 1016.3
20260831105252 54 263 7.0 9.0 0.00 0.00 0.00 96 1016.4
20260831104751 54 283 6.0 9.0 0.00 0.00 0.00 96 1016.4
20260831104251 54 271 4.0 8.0 0.00 0.00 0.00 96 1016.4
20260831103751 54 300 4.0 7.0 0.00 0.00 0.00 96 1016.4
20260831103251 54 291 6.0 8.0 0.00 0.00 0.00 96 1016.4
20260831101251 55 274 3.0 9.0 0.00 0.00 0.00 96 1016.6
20260831100750 55 273 6.0 9.0 0.00 0.00 0.00 96 1016.6